EW2719 Weather Reports


time (UTC)temp
C
wind
direction
speed
KPH
gust
KPH
rain 1hr
cm
rain 24hr
cm
rain mn
cm
humidity
%
barometer
mb
20260509053028 8 134 1.6 6.4 0.00 0.00 0.00 68 1023.3
20260509051523 8 130 1.6 4.8 0.00 0.00 0.00 69 1023.4
20260509050019 7 129 3.2 6.4 0.00 0.00 0.00 70 1023.5
20260509044515 6 128 0.0 4.8 0.00 0.00 0.00 71 1023.4
20260509043010 5 127 1.6 4.8 0.00 0.00 0.00 73 1023.3
20260509041510 5 121 0.0 4.8 0.00 0.00 0.00 73 1023.4
20260509040006 5 137 0.0 3.2 0.00 0.00 0.00 73 1023.4
20260509034505 5 135 0.0 3.2 0.00 0.00 0.00 73 1023.5
20260509033003 5 132 0.0 3.2 0.00 0.00 0.00 73 1023.5
20260509031502 5 134 0.0 3.2 0.00 0.00 0.00 73 1023.5
20260509030100 6 129 0.0 3.2 0.00 0.00 0.00 72 1023.5
20260509024602 6 131 0.0 4.8 0.00 0.00 0.00 71 1023.6
20260509023100 6 134 0.0 4.8 0.00 0.00 0.00 71 1023.6
20260509021557 6 129 0.0 4.8 0.00 0.00 0.00 71 1023.8
20260509020059 6 132 0.0 3.2 0.00 0.00 0.00 72 1023.8
20260509014553 6 133 0.0 8.0 0.00 0.00 0.00 72 1023.8
20260509013057 6 140 0.0 4.8 0.00 0.00 0.00 70 1023.8
20260509011550 6 141 1.6 4.8 0.00 0.00 0.00 70 1023.9
20260509010049 6 140 0.0 4.8 0.00 0.00 0.00 70 1023.9
20260509004547 7 144 0.0 6.4 0.00 0.00 0.00 68 1023.9
20260509003047 7 155 3.2 8.0 0.00 0.00 0.00 68 1023.9
20260509001544 7 148 3.2 11.3 0.00 0.00 0.00 69 1024.0
20260509000043 7 155 6.4 16.1 0.00 0.00 0.00 72 1024.0
20260508234541 7 167 4.8 11.3 0.00 0.00 0.00 77 1023.9
20260508233036 7 150 1.6 8.0 0.00 0.00 0.00 78 1024.0
20260508231535 7 141 3.2 8.0 0.00 0.00 0.00 77 1024.0
20260508230034 8 154 4.8 12.9 0.00 0.00 0.00 77 1024.1
20260508224533 8 160 4.8 8.0 0.00 0.00 0.00 76 1023.9
20260508223034 8 180 3.2 6.4 0.00 0.00 0.00 76 1023.9
20260508221525 8 163 0.0 3.2 0.00 0.00 0.00 75 1023.9
20260508220022 8 188 1.6 4.8 0.00 0.00 0.00 74 1024.0
20260508214522 9 182 3.2 6.4 0.00 0.00 0.00 72 1023.9
20260508213025 9 180 3.2 6.4 0.00 0.00 0.00 71 1023.8
20260508211520 9 173 4.8 8.0 0.00 0.00 0.00 73 1023.7
20260508210019 9 184 1.6 6.4 0.00 0.00 0.00 72 1023.7
20260508204518 9 184 3.2 6.4 0.00 0.00 0.00 72 1023.6
20260508203016 9 180 4.8 8.0 0.00 0.00 0.00 72 1023.4
20260508201515 10 178 6.4 11.3 0.00 0.00 0.00 72 1023.3
20260508200013 10 168 6.4 9.7 0.00 0.00 0.00 71 1023.1
20260508194513 10 164 1.6 8.0 0.00 0.00 0.00 66 1022.9
20260508193011 10 162 4.8 11.3 0.00 0.00 0.00 63 1023.0
20260508191521 10 160 3.2 9.7 0.00 0.00 0.00 60 1023.0
20260508190013 11 147 1.6 8.0 0.00 0.00 0.00 57 1022.7
20260508184507 11 153 1.6 9.7 0.00 0.00 0.00 55 1022.7
20260508183006 12 182 4.8 14.5 0.00 0.00 0.00 53 1022.6
20260508181504 13 143 3.2 12.9 0.00 0.00 0.00 50 1022.5
20260508180002 13 175 8.0 16.1 0.00 0.00 0.00 50 1022.2
20260508174609 13 141 9.7 22.5 0.00 0.00 0.00 50 1022.2
20260508173059 14 165 11.3 19.3 0.00 0.00 0.00 51 1022.0
20260508171557 14 139 9.7 17.7 0.00 0.00 0.00 49 1021.8
20260508170054 15 146 4.8 14.5 0.00 0.00 0.00 49 1022.0
20260508164551 15 172 4.8 16.1 0.00 0.00 0.00 50 1022.1
20260508163053 15 162 11.3 20.9 0.00 0.00 0.00 50 1022.2
20260508161550 15 157 6.4 17.7 0.00 0.00 0.00 46 1022.1
20260508160050 15 135 3.2 16.1 0.00 0.00 0.00 43 1022.1
20260508154549 16 170 9.7 19.3 0.00 0.00 0.00 47 1022.0
20260508153053 16 168 8.0 20.9 0.00 0.00 0.00 50 1022.0
20260508151547 16 190 12.9 22.5 0.00 0.00 0.00 53 1022.0
20260508150047 16 163 8.0 19.3 0.00 0.00 0.00 54 1022.0
20260508144546 16 193 16.1 22.5 0.00 0.00 0.00 52 1022.1
20260508143044 16 138 3.2 25.7 0.00 0.00 0.00 53 1022.2
20260508141609 16 165 9.7 17.7 0.00 0.00 0.00 54 1022.2
20260508140042 16 176 11.3 20.9 0.00 0.00 0.00 52 1022.2
20260508134553 16 184 12.9 25.7 0.00 0.00 0.00 49 1022.2
20260508133043 16 178 12.9 20.9 0.00 0.00 0.00 51 1022.3
20260508131540 16 208 11.3 22.5 0.00 0.00 0.00 47 1022.2
20260508130039 16 173 11.3 22.5 0.00 0.00 0.00 50 1022.4
20260508124544 16 182 12.9 20.9 0.00 0.00 0.00 48 1022.4
20260508123046 16 217 8.0 20.9 0.00 0.00 0.00 49 1022.5
20260508121537 16 178 8.0 24.1 0.00 0.00 0.00 47 1022.4
20260508120036 16 202 11.3 20.9 0.00 0.00 0.00 51 1022.5
20260508114537 16 208 9.7 19.3 0.00 0.00 0.00 50 1022.4
20260508113048 16 176 8.0 19.3 0.00 0.00 0.00 48 1022.4
20260508111534 16 200 9.7 22.5 0.00 0.00 0.00 44 1022.4
20260508110032 15 200 9.7 17.7 0.00 0.00 0.00 44 1022.4
20260508104532 16 148 4.8 16.1 0.00 0.00 0.00 46 1022.4
20260508103034 15 202 9.7 19.3 0.00 0.00 0.00 45 1022.5
20260508101532 15 200 9.7 17.7 0.00 0.00 0.00 45 1022.4
20260508100027 15 161 8.0 24.1 0.00 0.00 0.00 47 1022.2
20260508094524 15 211 11.3 19.3 0.00 0.00 0.00 47 1022.2
20260508093023 15 135 6.4 12.9 0.00 0.00 0.00 52 1022.3
20260508091533 15 135 3.2 14.5 0.00 0.00 0.00 51 1022.2
20260508090029 15 122 1.6 14.5 0.00 0.00 0.00 47 1022.2
20260508084514 15 59 3.2 9.7 0.00 0.00 0.00 45 1022.2
20260508083010 14 121 1.6 14.5 0.00 0.00 0.00 50 1022.2
20260508081509 14 130 3.2 11.3 0.00 0.00 0.00 59 1022.2
20260508080004 14 130 6.4 14.5 0.00 0.00 0.00 63 1022.2
20260508074603 13 123 4.8 12.9 0.00 0.00 0.00 66 1022.1
20260508073056 13 128 8.0 16.1 0.00 0.00 0.00 67 1022.1
20260508071553 13 134 3.2 12.9 0.00 0.00 0.00 75 1022.0
20260508070052 12 137 4.8 12.9 0.00 0.00 0.00 79 1021.9
20260508064546 12 120 1.6 11.3 0.00 0.00 0.00 81 1021.7
20260508063042 12 167 3.2 9.7 0.00 0.00 0.00 84 1021.6
20260508061539 11 130 6.4 11.3 0.00 0.00 0.00 86 1021.5
20260508060036 11 141 1.6 8.0 0.00 0.00 0.00 87 1021.4
20260508054530 11 139 0.0 3.2 0.00 0.00 0.00 89 1021.2